{"data":{"norad_id":68390,"intl_designator":"2026-063L","name":"STARLINK-37193","alt_names":[],"object_type":"PAYLOAD","status":"ACTIVE","operator":null,"country":"US","launch_date":"2026-03-26","launch_site_code":"AFWTR","launch_vehicle":null,"mission":null,"orbit_class":"UNKNOWN","rcs_meters":null,"size_class":null,"mass_kg":null,"dimensions":null,"purposes":["comms"],"wikipedia_slug":null,"has_3d_model":false,"image_url":null,"decayed_at":null,"tle_current":{"epoch":"2026-09-20T04:36:21.925152Z","epoch_age_seconds":75080,"freshness":"FRESH","line1":"1 68390U 26063L   26263.19192043  .00006698  00000+0  20962-3 0  9991","line2":"2 68390  97.2856  46.9951 0000931  87.7617 272.3733 15.33441814 27895","mean_motion":15.33441814,"eccentricity":9.31e-5,"inclination_deg":97.2856,"raan_deg":46.9951,"arg_perigee_deg":87.7617,"mean_anomaly_deg":272.3733,"bstar":0.00020962,"rev_number":2789,"period_min":93.906399763793,"perigee_km":464.91550628223,"apogee_km":466.18980129577,"semimajor_km":6843.689653789,"source":"CELESTRAK","updated_at":"2026-09-20T09:00:43.894880Z"}}}